Location: Caltech
(34.1382°N, 118.1253°W)
Time: 23:14:02
(UTC-08:00)

Tiros 1 despin weight - All Passes

Search period start: 12 December 2017 00:00
Search period end: 22 December 2017 00:00
Orbit: 595 x 643 km, 48.2° (Epoch: 12 December)

Date Brightness Start Highest point End Pass type
(mag) Time Alt. Az. Time Alt. Az. Time Alt. Az.
12 Dec - 01:36:53 10° NNW 01:39:21 14° N 01:41:50 10° NE night (unlit)
12 Dec - 03:17:57 10° NW 03:22:01 33° NNE 03:26:02 10° E visible
12 Dec - 04:59:26 10° WNW 05:03:39 44° SW 05:07:50 10° SSE visible
12 Dec - 20:44:30 10° SW 20:49:07 65° SE 20:53:40 10° ENE night (unlit)
12 Dec - 22:27:02 10° W 22:30:58 27° NNW 22:34:52 10° NE night (unlit)
13 Dec - 00:11:24 10° NW 00:13:45 14° N 00:16:06 10° NNE night (unlit)
13 Dec - 01:53:39 10° NNW 01:56:46 18° NNE 01:59:51 10° ENE night (unlit)
13 Dec - 03:34:38 10° NW 03:39:04 59° NE 03:43:26 10° ESE visible
13 Dec - 05:17:02 10° W 05:20:18 20° SW 05:23:32 10° S visible
13 Dec - 19:21:17 10° S 19:24:43 20° SE 19:28:07 10° E visible
13 Dec - 21:01:21 10° WSW 21:05:58 63° NW 21:10:32 10° NE night (unlit)
13 Dec - 22:44:56 10° WNW 22:48:14 19° NNW 22:51:30 10° NNE night (unlit)
14 Dec - 00:28:55 10° NNW 00:31:14 14° N 00:33:32 10° NE night (unlit)
14 Dec - 02:10:17 10° NNW 02:14:04 25° NNE 02:17:48 10° E night (unlit)
14 Dec - 03:51:29 10° WNW 03:55:56 68° SW 04:00:19 10° SE visible
14 Dec - 19:36:56 10° SSW 19:41:21 43° SE 19:45:44 10° ENE visible
14 Dec - 21:18:44 10° W 21:23:00 35° NNW 21:27:14 10° NE night (unlit)
14 Dec - 23:02:59 10° NW 23:05:38 15° N 23:08:15 10° NNE night (unlit)
15 Dec - 00:45:55 10° NNW 00:48:41 16° NNE 00:51:27 10° NE night (unlit)
15 Dec - 02:26:55 10° NW 02:31:11 42° NNE 02:35:25 10° ESE night (unlit)
15 Dec - 04:08:43 10° WNW 04:12:39 31° SW 04:16:33 10° SSE visible
15 Dec - 18:14:53 10° SSE 18:17:04 13° SE 18:19:14 10° E visible
15 Dec - 19:53:27 10° SW 19:58:08 89° SSE 20:02:47 10° NE visible
15 Dec - 21:36:29 10° WNW 21:40:11 23° NNW 21:43:51 10° NNE night (unlit)
15 Dec - 23:20:46 10° NNW 23:23:05 14° N 23:25:23 10° NNE night (unlit)
16 Dec - 01:02:36 10° NNW 01:06:02 21° NNE 01:09:27 10° ENE night (unlit)
16 Dec - 02:43:39 10° NW 02:48:10 80° NE 02:52:36 10° SE night (unlit)
16 Dec - 04:26:51 10° W 04:29:14 14° SW 04:31:36 10° SSW visible
16 Dec - 18:29:38 10° SSW 18:33:38 28° SE 18:37:38 10° ENE visible
16 Dec - 20:10:33 10° WSW 20:15:04 48° NNW 20:19:33 10° NE visible
16 Dec - 21:54:29 10° NW 21:57:31 17° NNW 22:00:31 10° NNE night (unlit)
16 Dec - 23:38:03 10° NNW 23:40:34 14° N 23:43:04 10° NE night (unlit)
17 Dec - 01:19:13 10° NW 01:23:16 31° NNE 01:27:16 10° E night (unlit)
17 Dec - 03:00:38 10° WNW 03:04:58 48° SW 03:09:14 10° SSE night (unlit)
17 Dec - 18:45:44 10° SW 18:50:21 60° SE 18:54:56 10° ENE visible
17 Dec - 20:28:06 10° W 20:32:10 29° NNW 20:36:12 10° NE visible
17 Dec - 22:12:27 10° NW 22:14:57 14° N 22:17:25 10° NNE night (unlit)
17 Dec - 23:54:52 10° NNW 23:57:59 18° NNE 00:01:03 10° ENE night (unlit)
18 Dec - 01:35:53 10° NW 01:40:20 55° NE 01:44:43 10° ESE night (unlit)
18 Dec - 03:18:08 10° W 03:21:37 22° SW 03:25:04 10° S night (unlit)
18 Dec - 17:22:43 10° S 17:25:58 19° SE 17:29:13 10° E visible
18 Dec - 19:02:32 10° WSW 19:07:12 69° NW 19:11:50 10° NE visible
18 Dec - 20:45:59 10° WNW 20:49:25 20° NNW 20:52:50 10° NNE visible
18 Dec - 22:30:02 10° NNW 22:32:25 14° N 22:34:47 10° NE night (unlit)
19 Dec - 00:11:31 10° NNW 00:15:17 25° NNE 00:19:00 10° ENE night (unlit)
19 Dec - 01:52:42 10° NW 01:57:14 75° SW 02:01:40 10° SE night (unlit)
19 Dec - 17:38:14 10° SSW 17:42:36 39° SE 17:46:56 10° ENE visible
19 Dec - 19:19:50 10° W 19:24:12 38° NNW 19:28:32 10° NE visible
19 Dec - 21:04:00 10° NW 21:06:48 15° N 21:09:34 10° NNE night (unlit)
19 Dec - 22:47:05 10° NNW 22:49:52 16° N 22:52:38 10° NE night (unlit)
20 Dec - 00:28:08 10° NW 00:32:26 39° NNE 00:36:40 10° E night (unlit)
20 Dec - 02:09:52 10° WNW 02:13:58 34° SW 02:17:59 10° SSE night (unlit)
20 Dec - 16:16:35 10° SSE 16:18:20 12° SE 16:20:05 10° ESE daylight
20 Dec - 17:54:40 10° SW 17:59:21 82° SE 18:04:02 10° NE visible
20 Dec - 19:37:32 10° WNW 19:41:22 24° NNW 19:45:10 10° NNE visible
20 Dec - 21:21:50 10° NW 21:24:15 14° N 21:26:40 10° NNE night (unlit)
20 Dec - 23:03:48 10° NNW 23:07:15 20° NNE 23:10:39 10° ENE night (unlit)
21 Dec - 00:44:52 10° NW 00:49:25 74° NE 00:53:54 10° ESE night (unlit)
21 Dec - 02:27:48 10° W 02:30:33 16° SW 02:33:16 10° SSW night (unlit)
21 Dec - 16:31:00 10° S 16:34:53 26° SE 16:38:46 10° ENE daylight
21 Dec - 18:11:42 10° WSW 18:16:16 52° NNW 18:20:50 10° NE visible
21 Dec - 19:55:31 10° WNW 19:58:40 18° NNW 20:01:49 10° NNE visible
21 Dec - 21:39:10 10° NNW 21:41:44 14° N 21:44:16 10° NE night (unlit)
21 Dec - 23:20:26 10° NW 23:24:29 30° NNE 23:28:29 10° E night (unlit)
